Lid_Strength_Index
12 12 15 16 16 17 17 17 17 14 16 18 16 16 14 12 12 13 13 13 12 12 11 11 11 10 10 9 8 8 8 8 8 9 8 8 9 8 8 7 6 7 7 8
12 15 16 17 17 18 16 17 15 15 18 18 16 17 14 13 13 12 13 13 12 12 12 12 12 11 11 11 10 9 8 8 8 8 9 9 9 9 9 8 8 7 7 8
13 17 17 18 17 18 15 17 17 19 18 16 18 14 14 14 14 13 13 12 12 13 13 12 12 12 11 11 10 9 9 8 8 9 9 9 9 9 10 9 8 7 7 7
15 17 18 17 18 18 18 18 19 19 19 17 17 16 12 12 14 14 13 13 12 12 12 12 12 12 12 11 9 10 9 8 9 8 9 10 11 12 10 10 9 9 8 8
16 17 17 17 19 19 17 18 19 20 20 21 18 18 13 15 15 14 12 12 12 12 12 12 12 11 11 11 10 10 10 9 9 9 9 11 12 10 10 10 10 10 9 9
17 17 17 18 18 18 18 19 19 20 19 18 21 18 14 12 13 12 12 12 12 12 12 12 12 12 12 11 11 10 11 10 10 10 10 11 11 11 11 11 11 10 10 9
14 17 18 18 18 18 17 17 18 19 19 18 21 19 14 12 12 12 13 13 12 12 12 12 12 12 12 12 12 11 12 12 11 11 11 11 11 11 11 11 11 12 11 11
15 15 17 18 19 20 19 19 17 20 18 17 20 19 12 12 12 13 13 13 13 12 12 12 12 12 12 12 13 13 13 14 12 12 11 11 11 11 11 11 12 11 12 11
15 14 19 20 19 20 18 16 20 19 22 21 16 14 11 13 12 12 13 13 13 11 11 12 12 12 12 13 13 14 14 15 13 12 11 12 11 12 12 12 11 12 12 11
17 17 18 21 20 20 20 20 18 17 19 20 15 15 14 11 11 11 12 12 11 10 11 11 11 11 13 13 14 14 14 15 14 12 12 12 12 12 12 12 12 12 12 12
18 19 17 19 19 18 20 19 20 19 19 18 19 15 12 11 10 12 13 12 11 11 11 11 11 11 13 14 14 15 15 15 14 13 12 12 12 12 12 13 13 13 13 12
19 18 19 15 23 22 21 17 16 18 19 19 22 19 10 12 14 14 14 13 11 11 10 10 10 11 13 14 15 15 15 15 15 13 12 13 13 13 13 13 13 13 13 13
18 17 18 16 20 21 21 20 20 21 19 19 19 16 12 12 13 12 13 11 11 10 10 10 10 12 14 15 15 16 16 16 15 13 13 13 13 13 13 13 13 13 13 13
18 19 18 17 14 15 18 21 23 20 19 17 18 16 13 13 13 12 12 12 12 12 12 11 13 14 14 14 15 16 16 16 15 14 14 14 14 13 13 13 13 13 12 11
19 21 18 17 16 17 17 18 22 23 18 18 15 15 13 13 13 13 12 12 12 12 12 11 13 13 14 15 15 16 16 16 16 15 14 14 14 13 13 13 13 12 11 11
19 20 21 22 16 17 18 17 18 19 19 18 18 19 14 13 13 13 12 12 12 12 11 11 12 14 15 16 16 17 17 17 16 15 15 15 15 14 13 13 13 12 11 11
19 19 20 19 18 18 18 17 19 18 18 18 19 13 13 13 12 12 12 12 12 12 11 12 14 15 16 17 17 18 17 17 16 16 15 15 15 14 13 14 13 12 11 11
18 20 19 21 19 20 13 14 15 17 16 17 16 15 14 13 12 11 11 12 12 11 11 12 15 16 16 17 18 18 18 18 17 16 15 15 15 14 13 14 13 11 11 10
17 18 20 20 19 16 13 16 15 16 15 12 15 15 12 11 11 11 8 10 10 10 12 14 16 17 17 18 18 18 19 18 16 16 15 15 14 14 14 14 13 11 11 10
18 18 20 19 21 20 11 15 15 16 15 12 12 12 12 11 14 12 10 9 10 13 14 16 16 17 18 18 19 19 19 18 17 16 16 15 15 14 15 14 12 11 10 10
20 20 22 21 22 18 12 14 16 16 13 10 10 11 11 12 11 10 10 10 10 13 15 15 16 19 19 19 19 20 19 18 17 16 16 15 14 14 14 13 11 10 10 11
15 15 20 19 21 21 11 15 14 10 10 9 9 10 10 10 10 10 10 11 13 15 15 16 17 19 19 19 20 20 20 18 16 16 16 16 14 13 13 13 11 10 11 11
16 13 12 15 13 8 8 9 7 7 9 9 9 9 10 11 11 10 11 11 14 15 16 16 18 19 20 20 20 21 19 18 17 17 17 15 14 14 13 12 10 11 11 11
14 13 14 12 10 9 8 7 7 8 9 9 9 9 10 11 11 11 11 12 14 15 16 17 19 20 21 20 20 20 19 17 17 18 17 15 14 15 13 11 10 11 11 11
11 11 11 11 10 9 8 8 8 9 9 9 9 9 10 11 12 12 13 14 14 15 16 17 19 21 21 20 20 20 19 18 18 17 16 15 14 15 14 11 11 10 10 10
10 10 12 12 9 9 10 9 9 10 10 10 11 11 11 12 14 13 15 14 15 16 16 18 20 21 21 21 20 20 19 18 18 17 16 15 14 15 14 12 11 9 8 9